Tekamah, NE

7:42 AM CDT on May 27, 2018 (GMT -0500)
Tekamah

Weather History for KTQE - September, 2012

Change the Weather History Date:

Thursday, September 27, 2012

  Actual Average Record
Temperature  
Mean Temperature 56 °F -  
Max Temperature 79 °F 75 °F 94 °F (1956)
Min Temperature 33 °F 46 °F 32 °F (1984)
Degree Days  
Heating Degree Days 10    
Growing Degree Days 6 (Base 50)    
Moisture  
Dew Point 28 °F    
Average Humidity 48    
Maximum Humidity 81    
Minimum Humidity 8    
Precipitation  
Precipitation 0.00 in - - ()
Sea Level Pressure  
Sea Level Pressure 30.18 in    
Wind  
Wind Speed 5 mph (North)    
Max Wind Speed 9 mph    
Max Gust Speed -    
Visibility 6 miles    
Events      
Averages and records for this station are not official NWS values.
T = Trace of Precipitation, MM = Missing Value Source: NWS Daily Summary

Daily Weather History Graph

Daily Weather History Graph

Search for Another Location

Airport or City:

Astronomy

Sep. 27, 2012 Rise Set
Actual Time 7:17 AM CDT 7:12 PM CDT
Civil Twilight 6:50 AM CDT 7:40 PM CDT
Nautical Twilight 6:17 AM CDT 8:12 PM CDT
Astronomical Twilight 5:44 AM CDT 8:45 PM CDT
Moon 5:45 PM CDT 4:46 AM CDT
Length of Visible Light 12h 49m
Length of Day
11h 54m
Waxing Gibbous, 94% of the Moon is Illuminated
Sep 27
Waxing Gibbous
Sep 29
Full
Oct 8
Last Quarter
Oct 15
New
Oct 21
First Quarter

Hourly Weather History & Observations

Time (CDT) Temp. Windchill Dew Point Humidity Pressure Visibility Wind Dir Wind Speed Gust Speed Precip Events Conditions
12:28 AM 44.6 °F 40.7 °F 26.6 °F 49% 30.16 in 3.0 mi NNW 6.9 mph - N/A   Haze
12:40 AM 44.6 °F 40.7 °F 26.6 °F 49% 30.17 in 2.5 mi NNW 6.9 mph - N/A   Haze
12:54 AM 44.1 °F 41.5 °F 27.0 °F 51% 30.16 in 3.0 mi NNW 4.6 mph - N/A   Haze
1:54 AM 43.0 °F - 28.9 °F 58% 30.17 in 5.0 mi Calm Calm - N/A   Haze
2:54 AM 39.0 °F 32.8 °F 28.9 °F 67% 30.16 in 6.0 mi North 9.2 mph - N/A   Haze
3:54 AM 37.9 °F 32.7 °F 28.0 °F 68% 30.17 in 2.5 mi NNW 6.9 mph - N/A   Haze
4:23 AM 39.2 °F 35.0 °F 28.4 °F 65% 30.19 in 5.0 mi North 5.8 mph - N/A   Haze
4:54 AM 37.9 °F 34.4 °F 28.0 °F 68% 30.19 in 7.0 mi North 4.6 mph - N/A   Clear
5:24 AM 35.6 °F 30.7 °F 28.4 °F 75% 30.22 in 2.5 mi NNW 5.8 mph - N/A   Haze
5:36 AM 35.6 °F 30.7 °F 28.4 °F 75% 30.21 in 4.0 mi North 5.8 mph - N/A   Haze
5:54 AM 37.0 °F 31.0 °F 28.9 °F 73% 30.20 in 4.0 mi North 8.1 mph - N/A   Haze
6:54 AM 36.0 °F 29.6 °F 28.9 °F 76% 30.21 in 4.0 mi North 8.1 mph - N/A   Haze
7:37 AM 33.8 °F 29.6 °F 28.4 °F 81% 30.22 in 1.8 mi North 4.6 mph - N/A   Haze
7:54 AM 35.1 °F 30.1 °F 28.9 °F 78% 30.22 in 1.5 mi North 5.8 mph - N/A   Haze
8:23 AM 39.2 °F 35.0 °F 30.2 °F 70% 30.22 in 3.0 mi North 5.8 mph - N/A   Haze
8:54 AM 46.9 °F - 35.1 °F 63% 30.21 in 3.0 mi North 6.9 mph - N/A   Haze
9:54 AM 55.0 °F - 35.1 °F 47% 30.22 in 4.0 mi North 5.8 mph - N/A   Haze
10:20 AM 57.2 °F - 35.6 °F 44% 30.22 in 2.0 mi North 4.6 mph - N/A   Haze
10:28 AM 57.2 °F - 35.6 °F 44% 30.23 in 1.5 mi Calm Calm - N/A   Haze
10:44 AM 60.8 °F - 35.6 °F 39% 30.23 in 3.0 mi Calm Calm - N/A   Haze
10:54 AM 60.1 °F - 35.1 °F 39% 30.22 in 3.0 mi Calm Calm - N/A   Haze
11:54 AM 66.9 °F - 32.0 °F 27% 30.22 in 10.0 mi Calm Calm - N/A   Clear
1:54 PM 75.0 °F - 23.0 °F 14% 30.15 in 10.0 mi Variable 5.8 mph - N/A   Clear
2:54 PM 75.9 °F - 15.1 °F 10% 30.13 in 10.0 mi Variable 3.5 mph - N/A   Clear
3:54 PM 78.1 °F - 12.9 °F 8% 30.12 in 10.0 mi NNE 8.1 mph - N/A   Clear
4:54 PM 78.1 °F - 12.9 °F 8% 30.11 in 10.0 mi NNE 5.8 mph - N/A   Clear
5:54 PM 77.0 °F - 15.1 °F 10% 30.10 in 10.0 mi NNE 4.6 mph - N/A   Clear
6:54 PM 70.0 °F - 21.0 °F 16% 30.12 in 7.0 mi Calm Calm - N/A   Clear
7:54 PM 62.1 °F - 28.9 °F 29% 30.12 in 5.0 mi Calm Calm - N/A   Haze
8:54 PM 53.1 °F - 30.9 °F 43% 30.14 in 9.0 mi Calm Calm - N/A   Clear
9:54 PM 52.0 °F - 33.1 °F 49% 30.14 in 9.0 mi North 3.5 mph - N/A   Clear
10:54 PM 46.9 °F - 30.0 °F 52% 30.14 in 10.0 mi North 3.5 mph - N/A   Clear
11:54 PM 46.9 °F - 30.0 °F 52% 30.14 in 10.0 mi North 3.5 mph - N/A   Clear